Malott, WA (98829)

10:20 PM PDT on August 27, 2016 (GMT -0700)
Biebesheimer Retreat, Chiliwist Valley | | Change Station

Elev 2739 ft 48.31 °N, 119.84 °W | Updated 6 seconds ago

Clear
Clear
64.8 °F
Feels Like 64.8 °F
N
9.8
Wind Variable Wind from North
Gusts 12.3 mph

Today
High -- | Low -- °F
--% Chance of Precip.
Yesterday
High -- | Low -- °F
Precip. -- in
Pressure 29.75 in
Visibility 10.0 miles
Clouds Clear
Dew Point 38 °F
Humidity 37%
Rainfall 0.00 in
Snow Depth Not available.
6:10 AM 7:49 PM
Waning Crescent, 18% visible
METAR KOMK 280453Z AUTO 32008KT 10SM CLR 22/02 A2977 RMK AO2 SLP073 T02170022 $
Pressure 29.75 in
Visibility 10.0 miles
Clouds Clear
Dew Point 38 °F
Humidity 37%
Rainfall 0.00 in
Snow Depth Not available.
6:10 AM 7:49 PM
Waning Crescent, 18% visible
METAR KOMK 280453Z AUTO 32008KT 10SM CLR 22/02 A2977 RMK AO2 SLP073 T02170022 $

10-Day Weather Forecast

Almanac

Astronomy

Aug. 27, 2016 Rise Set
Actual Time
Civil Twilight
Nautical Twilight
Astronomical Twilight
Moon
Length of Visible Light
Length of Day
Tomorrow will be .
, % of the Moon is Illuminated

Today's Extremes

State Highs State Lows

Community

WunderPhotos

Upload Photos

1,935,531 photos uploaded!

WunderBlog® & News

Nearby

Air Quality

  Air Quality AQ Index Pollutant
Not available.

Snow Depth

Station Depth Elevation

Earthquake Activity

City Distance Mag. Time & Date
Minimum magnitude displayed is 2.5.

Coastal Water Temperatures

Place Temperature

Stations

Nearby Weather Stations

Station Location Temp. Windchill Dew Point Humidity Wind Precip. Elev Updated Type
                   

Watches & Warnings

There are currently no watches in effect.